CAPE
0 0 0 0 0 0 0 0 0 0 0 0 0 0 0 0 0 0 0 0 283 1421 1564 1459 1406 1541 1529 1313 1078 1194 1268 891 871 608 376 137 408 516 474 461 260 99 4
0 0 0 0 0 0 0 0 0 0 0 0 0 0 0 0 0 0 0 0 0 0 1247 1589 1535 1656 1467 1223 991 1084 895 704 817 598 358 415 99 109 502 350 134 12 0
0 0 0 0 0 0 0 0 0 0 0 0 0 0 0 0 0 0 0 0 0 0 0 1121 1495 1618 1374 1264 988 629 633 366 633 361 211 160 150 13 16 325 242 42 0
0 0 0 0 0 0 0 0 0 0 0 0 0 0 0 0 0 0 0 0 0 0 0 15 910 1387 1269 1025 532 0 0 0 241 390 322 38 6 24 43 11 111 35 0
0 0 0 0 0 0 0 0 0 0 0 0 0 0 0 0 0 0 0 0 0 0 0 0 132 733 1066 832 22 0 37 233 421 14 463 443 105 14 1 3 55 45 11
0 0 0 0 0 0 0 0 0 0 0 0 0 0 0 0 1 1 2 2 0 0 0 0 4 611 699 768 432 168 328 459 462 473 534 466 404 413 183 6 0 65 19
0 0 0 0 0 0 0 0 0 0 0 0 1 0 0 1 2 4 5 7 7 3 1 1 0 237 577 586 507 666 689 637 571 580 447 411 393 176 259 65 21 15 3
0 0 0 0 0 0 0 0 0 0 0 2 2 0 0 5 5 9 11 10 8 8 1 3 1 9 411 711 684 700 393 277 624 528 529 497 344 273 233 333 37 19 0
0 0 0 0 0 0 0 0 0 0 0 3 4 2 4 7 7 6 11 14 15 13 7 1 1 0 0 28 474 546 282 130 1 17 498 427 459 322 319 158 30 58 0
0 0 0 0 0 0 0 0 0 6 1 3 3 7 7 9 8 9 12 12 12 13 5 2 0 22 0 19 468 611 464 404 178 66 133 101 474 399 339 109 9 27 0
0 0 0 0 0 0 0 0 0 2 1 2 5 5 5 7 8 11 11 8 10 10 7 2 123 406 475 393 444 572 421 373 221 220 98 35 252 326 236 138 56 7 1
0 0 0 0 0 0 0 2 1 4 5 3 4 6 6 7 7 11 10 9 8 7 6 6 6 473 391 376 505 480 454 381 473 377 208 137 215 44 96 107 85 59 4
0 0 0 0 0 0 2 4 3 5 4 5 5 5 6 7 6 7 8 7 6 6 5 5 3 4 306 457 732 607 720 675 566 321 169 116 96 160 119 88 52 37 29
0 0 0 1 2 2 4 5 3 4 4 4 7 5 7 8 7 6 6 6 5 5 5 4 5 4 2 2 2 288 264 22 8 19 12 0 45 79 100 65 58 55 34
0 0 1 3 5 3 5 4 4 3 3 4 6 4 5 9 6 4 4 4 3 4 6 5 2 4 4 4 2 2 5 0 0 2 1 1 1 27 8 18 23 12 25
2 0 2 4 5 5 9 4 6 5 3 4 7 8 3 8 8 4 3 2 2 3 3 4 3 2 6 1 1 0 1 0 0 0 0 2 0 0 1 1 1 1 4
5 6 9 7 6 5 12 5 8 5 4 4 5 7 6 7 5 4 0 2 1 2 1 1 2 2 1 3 1 1 3 3 1 0 0 0 2 1 1 2 1 0 0
1 4 2 4 3 7 4 8 9 4 3 3 3 6 3 3 5 4 6 5 1 0 0 0 0 1 3 5 2 0 0 1 1 0 0 0 0 0 1 0 1 0 0
7 1 2 7 12 5 12 13 3 2 5 3 3 4 3 1 1 1 3 2 0 0 1 1 0 0 2 11 4 0 0 0 2 2 1 0 0 0 1 0 0 0 0
0 3 7 2 1 1 0 2 2 1 0 2 0 1 3 0 0 1 0 1 1 0 0 0 0 6 0 16 9 2 0 0 0 0 2 6 1 0 0 0 0 0 1
8 6 6 5 7 5 2 0 1 0 0 0 0 0 0 0 0 0 0 0 0 0 0 0 0 0 0 2 16 8 0 0 1 1 1 5 9 6 4 1 0 0 0
8 11 8 4 1 0 0 0 0 0 0 0 0 0 0 0 0 0 0 0 0 0 0 0 0 0 0 5 6 12 10 4 0 0 0 5 11 11 7 2 4 1 0
5 1 0 0 0 0 0 0 0 0 0 0 0 0 0 0 0 0 0 0 0 0 1 0 0 0 0 0 0 3 7 4 0 1 6 8 7 6 1 5 2 0 0
0 0 0 0 0 0 0 0 0 0 0 0 0 0 0 0 0 0 0 0 0 0 0 1 0 0 0 0 0 0 0 0 1 0 0 0 0 0 0 0 0 0 0
0 0 0 0 0 0 0 0 0 0 0 0 0 0 0 0 0 0 0 0 0 0 0 0 0 0 0 4 2 0 0 0 0 0 0 0 0 0 0 0 0 0 0
0 0 0 0 0 0 0 0 0 0 0 0 0 0 0 0 0 0 0 3 1 0 0 1 2 0 5 12 5 1 1 0 0 0 0 0 0 0 0 0 0 0 0
CIN
0 0 0 0 0 0 0 0 0 0 0 0 0 0 0 0 0 0 0 0 -207 -48 -62 -49 -67 -78 -56 -68 -88 -79 -81 -116 -121 -111 -129 -249 -150 -114 -121 -88 -124 -157 -125
0 0 0 0 0 0 0 0 0 0 0 0 0 0 0 0 0 0 0 0 0 0 -18 -33 -20 -23 -46 -63 -76 -47 -70 -98 -108 -86 -145 -58 -192 -228 -118 -132 -169 -181 0
0 0 0 0 0 0 0 0 0 0 0 0 0 0 0 0 0 0 0 0 0 0 0 -10 -18 -14 -28 -38 -82 -85 -37 -37 -54 -123 -178 -144 -130 -343 -328 -135 -136 -173 0
0 0 0 0 0 0 0 0 0 0 0 0 0 0 0 0 0 0 0 0 0 0 0 -51 -9 -20 -28 -60 -141 0 0 0 -6 -11 -76 -198 -257 -310 -228 -278 -166 -176 0
0 0 0 0 0 0 0 0 0 0 0 0 0 0 0 -0 -0 0 0 0 0 0 0 0 -39 -16 -32 -75 -322 0 -212 -84 -47 -223 -7 -43 -164 -308 -17 -133 -180 -113 -176
0 0 0 0 0 0 0 0 0 0 0 0 0 0 0 0 0 0 0 0 -0 -0 0 0 -136 -24 -11 -39 -103 -193 -100 -59 -74 -114 -38 -135 -86 -81 -183 -213 0 -148 -182
0 0 0 0 0 0 0 0 0 0 0 -0 0 -0 -0 0 0 0 0 0 0 -0 -0 -1 0 -94 -37 -13 -39 -47 -58 -56 -22 -46 -73 -114 -155 -176 -99 -214 -293 -234 -135
0 0 0 0 0 0 0 0 0 0 0 0 0 -0 -0 0 0 0 0 0 0 0 -0 -0 -0 -17 -86 -55 -9 -10 -88 -156 -36 -51 -85 -110 -143 -135 -145 -144 -213 -211 0
0 0 0 0 0 0 0 0 -0 0 0 0 0 0 0 0 0 0 0 0 0 0 -0 -0 -0 0 0 -293 -12 -5 -110 -266 -143 -273 -47 -70 -135 -129 -131 -196 -195 -183 -16
0 0 0 0 0 0 0 0 0 0 -0 0 0 0 0 0 0 0 0 0 0 0 0 -0 0 -43 0 -228 -25 -14 -90 -116 -200 -204 -117 -73 -40 -61 -140 -147 -169 -234 0
0 0 0 0 0 0 0 0 -0 0 -0 0 0 0 0 0 0 0 0 0 0 0 0 0 -87 -14 -43 -42 -35 -57 -100 -117 -119 -42 -26 -101 -53 -55 -92 -219 -144 -170 -31
0 0 0 0 0 0 0 0 -0 0 0 0 0 0 0 0 0 0 0 0 0 0 0 0 -4 -51 -35 -17 -53 -111 -81 -71 -6 -20 -22 -36 -65 -87 -139 -152 -135 -98 -94
0 0 0 0 0 0 0 0 0 0 0 0 0 0 0 0 0 0 0 0 0 0 0 0 0 0 -45 -8 -9 -10 -0 -1 -15 -40 -51 -129 -45 -61 -77 -79 -65 -105 -75
0 0 0 0 0 0 0 0 -0 -0 0 0 0 0 0 0 0 0 0 0 0 0 0 0 0 0 0 0 0 -10 -20 -181 -231 -138 -80 0 -127 -81 -22 -16 -38 -51 -31
0 0 0 0 0 0 0 0 0 0 0 0 0 0 0 0 0 0 0 0 0 0 0 0 0 0 0 0 0 0 -20 0 -35 -39 0 0 0 -20 -5 -44 -41 -40 -21
0 0 -0 0 0 0 0 0 0 0 0 0 0 0 -0 0 0 -0 0 0 0 0 0 0 0 0 0 0 0 0 0 0 0 0 0 0 0 0 0 0 0 0 -8
0 0 0 0 0 0 0 0 0 0 0 0 0 0 -0 0 0 0 -0 -0 -0 -0 -0 -0 0 0 0 0 0 0 0 0 0 0 0 0 0 0 0 0 0 0 0
0 0 0 0 0 0 0 0 0 0 0 0 -0 0 0 -0 0 -0 -0 -0 -0 0 0 -0 -0 -0 0 0 0 0 -0 0 0 0 0 0 0 0 0 0 0 0 0
-0 0 0 0 0 0 0 0 0 -0 -0 -0 0 0 0 -0 -0 -0 0 -0 -1 -1 -0 -0 -0 -1 -0 0 0 0 0 0 0 0 0 0 0 0 0 0 0 0 0
0 0 0 0 0 0 0 0 0 0 -0 -0 0 -0 -0 -0 -0 -0 -0 -0 -0 -0 -0 0 0 -0 -0 0 0 0 0 0 -0 -0 -0 0 0 0 0 0 0 0 0
0 0 0 0 0 0 -1 -0 -5 -4 -1 0 0 0 0 0 0 0 0 -1 0 0 -1 -0 0 0 -0 -0 0 0 0 0 -0 -0 -0 -0 0 0 0 0 0 0 0
0 0 0 0 -0 0 0 0 0 0 0 -11 0 0 0 0 0 0 0 0 0 0 0 0 0 -0 -0 0 0 0 0 0 0 0 -0 -0 0 0 0 -0 0 0 0
0 -0 0 0 0 0 0 0 0 0 0 0 0 0 0 0 0 0 0 0 0 -0 -1 0 0 0 0 0 0 0 0 0 0 -0 0 0 0 0 -0 0 0 -0 0
0 0 0 0 0 0 0 0 0 0 0 0 0 0 0 0 0 0 0 0 0 0 -1 -0 -1 0 0 0 0 0 -0 -0 -0 -0 -0 0 -0 0 0 0 0 0 -0
0 0 0 0 0 0 0 0 0 0 0 0 0 0 0 0 0 0 0 -0 0 -1 0 0 0 -0 -1 -2 -3 -0 -0 0 0 0 0 0 0 0 0 0 0 0 0
0 0 0 0 0 0 0 0 0 0 0 0 0 0 0 0 0 0 0 -0 -0 -0 0 0 -0 0 -1 -0 -0 0 0 0 0 0 0 0 -0 -1 0 0 0 0 0
Wind_Speed
15 17 15 14 15 14 14 11 10 8 7 6 7 8 8 8 8 8 10 11 6 9 12 10 11 11 11 12 10 8 9 3 5 5 3 2 4 5 5 4 5 5 5
17 16 14 13 14 11 9 9 8 7 5 6 5 4 7 5 9 9 11 10 10 7 11 13 12 13 11 11 10 11 3 2 8 4 4 2 1 2 4 4 5 8 4
21 19 14 14 12 12 11 11 10 10 9 11 8 7 6 6 5 7 11 12 14 14 11 15 13 12 11 12 7 4 3 6 1 3 5 2 5 3 2 6 7 8 5
22 18 17 15 13 12 14 11 9 9 10 9 8 9 7 10 8 10 11 12 17 15 15 16 17 15 10 11 11 8 6 16 14 2 3 3 4 4 3 1 4 8 8
21 18 18 15 15 14 11 7 9 8 9 10 8 7 9 9 9 10 15 15 14 15 14 15 16 16 10 12 12 12 12 15 13 11 14 9 3 3 4 4 3 4 7
18 17 17 15 15 11 8 6 11 12 12 12 12 11 12 14 12 12 12 11 11 12 14 14 14 14 15 13 13 15 19 14 13 14 14 13 12 8 4 4 3 8 5
17 16 16 12 15 9 7 9 12 13 15 14 14 15 12 13 14 14 12 16 12 12 14 14 14 9 13 13 11 13 15 15 15 16 12 10 10 4 6 4 4 4 3
17 15 14 12 12 11 9 9 11 13 13 14 15 15 14 9 10 12 13 13 13 14 18 16 15 10 6 10 16 13 11 11 12 14 12 9 10 8 6 8 5 3 2
15 13 16 14 13 11 12 13 12 12 14 14 13 15 15 14 13 16 15 13 15 14 20 17 17 12 14 12 15 15 15 13 12 9 9 7 8 9 7 5 5 7 7
15 13 14 14 12 11 9 11 12 13 14 14 13 12 14 15 15 14 15 16 16 16 16 14 15 16 14 14 18 14 10 14 12 11 9 8 7 11 10 9 5 5 5
13 13 12 10 10 11 11 11 13 14 14 14 14 14 15 15 15 13 14 14 16 16 15 16 16 16 17 14 14 13 13 14 14 15 18 18 17 10 7 8 6 5 5
11 10 10 12 10 11 12 13 13 13 14 14 14 14 14 15 14 15 15 15 16 15 15 14 16 11 11 11 12 13 13 15 16 17 18 18 11 11 9 7 10 7 6
10 10 11 12 13 13 12 12 12 13 13 14 14 15 15 15 15 16 16 15 17 17 16 14 14 15 5 13 13 15 15 13 14 15 13 11 9 8 8 8 8 8 6
15 13 12 12 12 13 12 12 12 13 14 14 15 16 15 15 15 15 16 17 17 18 18 16 16 17 16 14 14 10 9 8 8 7 7 6 7 13 11 9 10 8 8
15 14 13 12 11 11 11 12 13 13 14 14 14 15 14 14 14 15 16 16 17 17 17 16 14 15 15 12 13 9 6 10 7 6 5 5 5 11 6 6 8 10 9
11 10 11 13 13 14 12 12 13 13 12 12 13 13 13 14 15 15 17 17 18 17 16 17 17 17 10 23 31 22 9 8 7 8 8 7 10 12 13 15 14 7 7
10 11 12 12 12 11 11 11 11 11 12 12 13 13 12 14 14 15 15 16 18 16 18 18 18 19 19 26 32 31 14 11 10 9 7 7 5 7 8 14 15 15 13
10 10 9 10 10 9 10 10 9 11 11 12 12 11 14 15 15 16 16 16 13 15 17 19 19 18 19 29 30 21 20 15 17 13 11 7 5 4 7 8 8 9 9
8 5 6 6 7 8 8 7 9 10 12 13 12 13 14 14 15 16 16 14 14 16 16 14 19 20 22 34 27 16 20 12 18 15 16 10 8 10 10 8 9 8 5
5 6 7 7 8 9 8 7 7 8 9 11 13 12 13 14 16 15 15 12 12 13 12 16 18 23 19 32 34 22 12 14 13 14 14 23 17 16 14 9 7 9 5
7 7 7 7 8 8 9 9 5 6 5 5 8 12 13 14 15 13 13 13 13 13 14 15 16 18 21 21 30 30 14 11 10 11 11 11 22 20 20 19 11 7 3
6 8 7 8 8 10 10 11 8 6 7 5 3 8 11 10 12 14 13 13 13 13 14 14 14 14 16 27 27 26 24 17 12 11 8 11 23 22 24 16 20 16 8
5 7 7 9 11 12 13 12 12 6 9 10 10 5 9 11 10 12 13 12 13 12 12 12 11 11 12 12 25 25 24 19 11 9 15 21 19 19 18 26 22 14 8
8 9 10 11 11 11 12 12 13 12 11 12 12 12 11 8 9 8 8 9 11 11 12 11 11 10 10 11 11 11 10 13 10 9 10 11 13 16 14 13 12 9 8
8 9 9 8 8 9 11 12 13 12 10 10 10 11 9 10 5 7 7 7 10 13 9 8 9 11 12 13 18 17 10 9 10 8 9 10 9 10 10 9 10 8 7
8 8 8 8 8 9 9 11 12 10 9 9 8 8 7 7 6 6 3 12 16 22 22 21 17 6 20 24 22 23 24 22 18 10 10 10 10 9 8 8 8 7 8
Wind_Direction
109 95 86 80 74 61 57 45 36 13 4 353 354 343 333 324 319 315 311 320 313 220 221 224 228 222 224 218 203 200 187 177 153 102 46 50 109 174 184 171 171 181 181
103 93 83 76 77 69 61 51 38 13 357 4 348 345 343 330 319 313 306 296 286 267 249 220 222 218 223 227 214 204 169 140 166 135 103 204 275 224 181 167 172 185 170
122 98 83 77 71 65 54 44 25 15 15 2 355 349 330 328 316 317 313 311 313 312 284 245 224 218 215 217 197 202 191 173 320 248 150 159 220 127 198 201 178 188 179
92 90 88 74 65 57 53 35 20 11 2 354 6 358 331 319 312 304 302 301 304 301 301 301 243 220 217 214 195 180 234 160 232 249 232 217 180 169 169 210 197 183 182
95 94 89 82 71 61 48 21 7 359 354 5 6 349 328 310 306 303 302 300 298 297 293 297 281 231 211 213 192 186 194 192 177 181 224 215 240 222 137 159 191 210 198
86 81 79 73 67 61 50 14 5 0 1 359 352 344 332 320 315 307 301 296 296 294 288 279 289 245 229 215 205 194 197 194 202 198 203 198 202 211 164 144 165 206 195
78 69 63 63 65 55 47 27 17 1 353 348 347 338 329 322 313 309 305 301 295 286 282 277 277 264 235 233 220 206 194 192 196 195 196 199 201 193 208 131 148 172 188
74 73 71 65 57 48 37 31 19 4 352 348 342 335 332 327 316 307 307 294 288 282 277 268 263 250 220 212 221 217 205 194 198 199 199 198 200 199 191 183 153 155 180
65 65 61 56 52 41 33 27 7 5 354 350 342 336 335 330 323 315 300 296 293 282 278 254 258 244 229 197 230 221 202 197 200 204 211 211 203 205 201 173 182 151 185
52 55 63 50 43 30 30 27 9 1 354 349 348 341 335 332 323 317 311 307 302 299 296 266 246 238 223 228 226 219 188 182 184 198 181 235 220 219 199 172 204 163 141
61 53 54 49 41 31 20 19 7 359 356 353 348 343 341 336 330 324 316 317 314 313 313 311 252 244 227 214 225 204 188 180 182 192 195 211 218 215 195 165 170 170 156
62 58 50 42 32 28 16 17 8 358 355 352 352 350 342 337 338 328 329 331 327 331 331 323 314 262 236 227 208 203 200 190 195 191 197 214 198 196 187 167 165 190 183
69 57 47 37 29 19 10 12 7 359 354 353 354 356 347 344 344 338 342 341 343 349 347 350 354 345 278 237 209 219 212 204 199 192 190 176 180 191 181 190 181 165 175
45 39 34 27 24 16 5 7 8 5 359 358 360 357 350 350 344 350 350 353 355 359 358 359 3 15 11 27 342 234 191 162 170 195 159 168 201 192 191 186 177 160 175
34 27 24 20 16 11 7 9 9 7 2 0 359 359 352 350 357 3 3 3 6 6 3 0 8 13 22 11 344 309 185 146 150 112 82 79 116 90 116 177 175 173 178
38 31 30 25 20 13 9 9 8 3 0 3 1 1 355 359 6 9 13 13 13 11 13 11 14 20 14 13 16 355 191 151 135 108 93 93 80 77 85 81 73 69 190
47 40 31 33 24 15 12 12 4 356 4 5 3 4 357 8 10 12 18 18 20 9 24 23 20 22 16 15 42 12 31 61 68 78 84 73 58 97 95 87 77 67 57
48 37 28 29 25 15 15 12 3 10 9 9 6 1 9 12 8 14 17 16 14 15 24 24 24 28 21 19 43 32 44 32 42 36 44 59 52 55 113 103 92 70 59
65 42 29 23 10 6 358 1 17 14 17 16 10 7 15 15 14 11 14 15 16 19 21 19 26 31 31 28 30 47 55 7 43 32 37 31 39 37 107 104 101 89 62
50 44 40 30 19 5 354 0 10 17 15 18 19 16 23 23 22 14 13 10 12 23 21 27 24 21 31 33 35 34 52 44 43 27 29 36 44 54 61 81 94 82 24
76 62 46 36 22 11 7 11 344 9 351 4 17 25 25 28 26 19 15 12 19 22 23 27 26 23 22 24 35 42 39 41 44 37 29 35 41 53 65 73 69 78 67
62 63 56 43 35 26 17 19 6 359 4 349 17 38 31 28 27 23 17 17 18 26 24 24 24 19 18 19 22 31 39 35 42 47 33 39 43 47 62 59 67 69 65
51 80 74 52 34 26 22 16 11 21 28 21 18 27 42 34 27 28 23 22 23 24 23 25 23 17 14 16 16 18 26 31 44 38 42 44 41 36 50 52 51 42 46
58 58 56 47 36 20 17 16 14 16 25 31 23 25 31 42 33 32 32 31 31 28 26 23 21 15 16 20 17 16 20 25 28 23 33 36 34 38 39 42 41 49 38
59 54 53 49 34 22 16 10 5 16 24 27 28 26 23 23 44 46 37 36 43 44 31 26 16 16 18 20 28 28 28 31 27 28 36 33 31 32 31 32 36 24 37
60 56 50 45 28 24 17 7 2 356 19 24 25 22 16 12 15 21 26 51 57 44 35 33 28 10 30 24 31 33 36 38 37 43 36 31 31 34 29 26 28 24 34